Location: Days
(41.3591°N, 106.7339°W)
Time: 23:00:32
(UTC+00:00)

UWE-3 - Pass Details

Date: 05 July 2022
Orbit: 583 x 677 km, 97.7° (Epoch: 09 August)

Event Time Altitude Azimuth Distance (km) Brightness Sun altitude
Rises 10:05:14 0° 19° (NNE) 2,919 ? -14.3°
Reaches altitude 10° 10:07:30 10° 26° (NNE) 2,023 ? -14.0°
Maximum altitude 10:11:44 45° 99° (E) 886 ? -13.5°
Drops below altitude 10° 10:16:02 10° 172° (S) 2,062 ? -12.9°
Enters shadow 10:16:42 - 174° (S) 2,321 ? -12.9°
